User: anonymous
Location: Caltech
(34.1382°N, 118.1253°W)
Time: 04:06:50
(UTC-07:00)
Language:

Cosmos 2322 - Orbit

View from above orbital plane
View from above orbital plane
View from above satellite
View from above satellite

Ground track
Ground track

The orbit data is extracted from the following two-line orbital elements,

1 23704U 95058A   14211.13154263 -.00000284  00000-0 -12578-3 0   710
2 23704 070.9869 090.7868 0012265 256.1278 257.9104 14.13261393967050
Epoch (UTC): 30 July 2014 03:09:25
Eccentricity: 0.0012265
inclination: 70.9869°
perigee height: 839 km
apogee height: 857 km
right ascension of ascending node: 90.7868°
argument of perigee: 256.1278°
revolutions per day: 14.13261393
mean anomaly at epoch: 257.9104°
orbit number at epoch: 96705

The dashed part of the orbit path shows where the satellite is in the earth's shadow,  

DLR